THORAD DELTA 1 DEB, 9985

Orbit data source: Space-Track

THORAD DELTA 1 DEB, 9985 is space debris in SSO originally from a launch on Fri, 15 Nov 1974 UTC launched from the Air Force Western Test Range (AFWTR). Debris objects in space refer to the collection of defunct objects orbiting the Earth. Examples of debris include non-operational satellites, rocket bodies, and fragments generated from explosions, collisions, or faulty payload assembly.

Loading next visibility...
Identifier
9985, 1974-089EC
Orbit
SSO
Country
Flag of USUS
Related business
Manufacturer
Unknown
Mission
Spacecraft
Bus & Motor
Unknown
Mass
Unknown
Launch date (UTC)
1974-11-15 (51 years ago)
Launch vehicle
Unknown
Launch site
Air Force Western Test Range (AFWTR)
Object type
Payload
Rocket body
Debris
Shape & HBR
Unknown shape, 0.1 m
Radar Cross Section
Small (<0.1 m²)

Expand to show TLE details & history
Last TLE update: 1 day ago

TLE from 1 day ago
0 THORAD DELTA 1 DEB
1 09985U 74089EC  25299.66599383  .00000036  00000-0  54103-3 0  9990
2 09985 101.9598 258.9702 0048503 108.2863  77.1227 12.49068447323321
Epoch: 2025-10-26T15:59Z
TLE epoch observation values (Epoch: 2025-10-26T15:59:01.866Z)
Latitude
-5.95899°
Longitude
162.6728°
Altitude
1,463.621 km
Speed
7.134 km/s
True Right ascension
05h 10m 50s
True Declination
-5° 55' 36"
Sunlit
Object was in full shadow at epoch
Visualization orbit readout
Latitude
Unknown
Longitude
Unknown
Altitude
Unknown
Speed
Unknown
Apparent Right ascension
Unknown
Apparent Declination
Unknown
Sunlit
N/A
Visualization observer readout
Local Sidereal Time
13:15:29
Azimuth
Unknown
Elevation
Unknown
Doppler factor
Unknown
Orbital elements
Apogee altitude
1,504 km
Perigee altitude
1,427.908 km
Semi-major axis
7,844.091 km
Eccentricity
0.00485
Inclination
101.9598°
RAAN
258.9702°
Arg. of periapsis
108.2863°
True anomaly
77.66525°
Mean anomaly
77.1227°
Eccentric anomaly
77.3939°
Mean motion
3.12413 °/min
Orbital period
115.23 mins
BSTAR
0.00054103
Loading maneuver chart data...
Computing Atmospheric mass density...

Documentation

Showing up to 5 results
|